Cleveland, OH

6:42 PM EDT on September 24, 2016 (GMT -0400)
Cleveland-Hopkins International

Weather History for KCLE - December, 2002

Change the Weather History Date:

Tuesday, December 31, 2002

  Actual Average Record
Temperature  
Mean Temperature 42 °F 29 °F  
Max Temperature 51 °F 35 °F 68 °F (1875)
Min Temperature 33 °F 23 °F -11 °F (1976)
Degree Days  
Heating Degree Days 22 36  
Month to date heating degree days 1011  
Since 1 July heating degree days 2107  
Cooling Degree Days 0 0  
Month to date cooling degree days 0  
Year to date cooling degree days 817  
Moisture  
Dew Point 43 °F    
Average Humidity 97    
Maximum Humidity 100    
Minimum Humidity 89    
Precipitation  
Precipitation 0.37 in 0.10 in 0.63 in (1978)
Month to date precipitation 3.10  
Year to date precipitation 39.14  
Snow  
Snow 0.00 in 0.60 in - ()
Month to date snowfall 14.1  
Since 1 July snowfall 18.6  
Snow Depth -    
Sea Level Pressure  
Sea Level Pressure 29.95 in    
Wind  
Wind Speed 10 mph (WSW)    
Max Wind Speed 16 mph    
Max Gust Speed -    
Visibility 6 miles    
Events Rain    
T = Trace of Precipitation, MM = Missing Value Source: NWS Daily Summary

Daily Weather History Graph

Daily Weather History Graph

Search for Another Location

Airport or City:

Trip Planner

Search our weather history database for the weather conditions in past years. The results will help you decide how hot, cold, wet, or windy it might be!

Date:

Astronomy

Dec. 31, 2002 Rise Set
Actual Time 7:53 AM EST 5:07 PM EST
Civil Twilight 7:22 AM EST 5:38 PM EST
Nautical Twilight 6:47 AM EST 6:13 PM EST
Astronomical Twilight 6:13 AM EST 6:47 PM EST
Moon 5:36 AM EST (12/31) 3:07 PM EST (12/31)
Length of Visible Light 10h 16m
Length of Day
9h 14m
Waning Crescent, 6% of the Moon is Illuminated
Dec 31
Waning Crescent
Jan 2
New
Jan 10
First Quarter
Jan 18
Full
Jan 25
Last Quarter

Hourly Weather History & Observations

Time (EST) Temp. Windchill Dew Point Humidity Pressure Visibility Wind Dir Wind Speed Gust Speed Precip Events Conditions
12:51 AM 50.0 °F - 48.9 °F 96% 29.90 in 10.0 mi South 10.4 mph - N/A   Overcast
1:36 AM 50.0 °F - 48.2 °F 94% 29.88 in 10.0 mi SSW 11.5 mph - N/A   Overcast
1:51 AM 50.0 °F - 48.9 °F 96% 29.89 in 10.0 mi SSW 10.4 mph - N/A   Overcast
2:51 AM 50.0 °F - 50.0 °F 100% 29.90 in 9.0 mi South 11.5 mph - N/A   Overcast
3:51 AM 51.1 °F - 50.0 °F 96% 29.91 in 9.0 mi South 9.2 mph - N/A   Overcast
4:51 AM 51.1 °F - 51.1 °F 100% 29.89 in 9.0 mi South 10.4 mph - 0.00 in   Overcast
5:35 AM 51.8 °F - 51.8 °F 100% 29.87 in 8.0 mi South 16.1 mph - N/A   Overcast
5:51 AM 51.1 °F - 51.1 °F 100% 29.88 in 7.0 mi South 12.7 mph - 0.00 in   Light Drizzle
6:51 AM 51.1 °F - 50.0 °F 96% 29.89 in 8.0 mi SSW 11.5 mph - 0.00 in   Light Drizzle
7:25 AM 51.8 °F - 50.0 °F 94% 29.90 in 9.0 mi SSW 10.4 mph - 0.00 in   Overcast
7:51 AM 51.1 °F - 50.0 °F 96% 29.91 in 10.0 mi SSW 12.7 mph - 0.00 in   Overcast
8:51 AM 50.0 °F - 48.9 °F 96% 29.93 in 5.0 mi SSW 11.5 mph - 0.00 in Rain Light Rain
9:08 AM 50.0 °F - 48.2 °F 94% 29.92 in 2.0 mi SW 6.9 mph - 0.00 in Rain Light Rain
9:36 AM 48.2 °F - 48.2 °F 100% 29.93 in 1.0 mi WNW 9.2 mph - 0.01 in Rain Light Rain
9:51 AM 48.9 °F - 48.9 °F 100% 29.95 in 2.0 mi WNW 15.0 mph - 0.04 in Rain Rain
9:53 AM 46.4 °F 40.1 °F 46.4 °F 100% 29.94 in 2.0 mi NW 15.0 mph - 0.00 in Rain Rain
10:02 AM 46.4 °F 40.4 °F 46.4 °F 100% 29.95 in 2.5 mi NW 13.8 mph - 0.01 in Rain Rain
10:31 AM 44.6 °F 38.4 °F 44.6 °F 100% 29.95 in 3.0 mi WNW 12.7 mph - 0.04 in Rain Light Rain
10:51 AM 44.1 °F 39.5 °F 44.1 °F 100% 29.96 in 2.5 mi West 8.1 mph - 0.05 in Rain Light Rain
10:54 AM 44.6 °F 39.7 °F 44.6 °F 100% 29.95 in 1.5 mi West 9.2 mph - 0.00 in Rain Rain
11:24 AM 44.6 °F 40.7 °F 44.6 °F 100% 29.94 in 2.5 mi SW 6.9 mph - 0.04 in Rain Light Rain
11:51 AM 43.0 °F 38.2 °F 43.0 °F 100% 29.94 in 3.0 mi West 8.1 mph - 0.05 in Rain Light Rain
12:27 PM 41.0 °F 33.1 °F 41.0 °F 100% 29.93 in 2.0 mi WNW 15.0 mph - 0.02 in Rain Light Rain
12:51 PM 39.9 °F 35.8 °F 39.9 °F 100% 29.95 in 1.5 mi West 5.8 mph - 0.05 in Rain Rain
1:04 PM 41.0 °F 37.1 °F 41.0 °F 100% 29.93 in 2.0 mi West 5.8 mph - N/A Rain Rain
1:51 PM 39.9 °F 35.1 °F 39.9 °F 100% 29.93 in 2.0 mi NW 6.9 mph - 0.06 in Rain Light Rain
2:51 PM 39.0 °F 36.8 °F 39.0 °F 100% 29.94 in 2.0 mi West 3.5 mph - 0.07 in Rain Rain
3:51 PM 37.9 °F 29.2 °F 37.9 °F 100% 30.00 in 4.0 mi WNW 15.0 mph - 0.05 in Rain Light Rain
4:05 PM 37.4 °F 30.3 °F 37.4 °F 100% 29.98 in 6.0 mi West 10.4 mph - 0.00 in Rain Light Rain
4:13 PM 37.4 °F 30.8 °F 37.4 °F 100% 29.98 in 7.0 mi West 9.2 mph - 0.00 in Rain Light Rain
4:51 PM 37.0 °F 32.4 °F 36.0 °F 96% 30.00 in 8.0 mi WSW 5.8 mph - 0.00 in   Overcast
5:01 PM 37.4 °F 33.8 °F 35.6 °F 93% 29.99 in 9.0 mi SW 4.6 mph - N/A   Overcast
5:51 PM 37.9 °F 33.5 °F 35.1 °F 89% 30.00 in 10.0 mi SSW 5.8 mph - N/A   Overcast
6:51 PM 37.9 °F 34.4 °F 35.1 °F 89% 30.02 in 8.0 mi SW 4.6 mph - N/A   Overcast
7:51 PM 37.9 °F 34.4 °F 35.1 °F 89% 30.04 in 10.0 mi WSW 4.6 mph - N/A   Mostly Cloudy
8:51 PM 37.0 °F 31.6 °F 34.0 °F 89% 30.05 in 9.0 mi WNW 6.9 mph - N/A   Overcast
9:00 PM 35.6 °F 29.2 °F 33.8 °F 93% 30.04 in 9.0 mi WNW 8.1 mph - N/A   Mostly Cloudy
9:51 PM 34.0 °F 29.8 °F 32.0 °F 92% 30.05 in 8.0 mi NW 4.6 mph - N/A   Overcast
10:51 PM 34.0 °F 29.8 °F 32.0 °F 92% 30.05 in 7.0 mi NNW 4.6 mph - N/A   Mostly Cloudy
11:51 PM 33.1 °F 28.7 °F 32.0 °F 96% 30.04 in 6.0 mi North 4.6 mph - N/A   Mostly Cloudy